This is the latest recevied weather packets stored in our database for station/object N1UNH. If no packets are shown the sender has not sent any weather packets the latest 10 day(s).
| Time | Temp. | Humidity | Pressure | Rain* | Wind** | Luminosity | Snow |
|---|---|---|---|---|---|---|---|
| 1777910233 | 18.89° C | 31% | 1012.4 hPa | 0 mm | - | 943 W/m² | - |
| 1777909930 | 18.89° C | 30% | 1012.5 hPa | 0 mm | - | 936 W/m² | - |
| 1777909627 | 18.89° C | 32% | 1012.6 hPa | 0 mm | - | 718 W/m² | - |
| 1777909324 | 19.44° C | 30% | 1012.8 hPa | 0 mm | - | 915 W/m² | - |
| 1777909022 | 18.89° C | 31% | 1012.5 hPa | 0 mm | - | 900 W/m² | - |
| 1777908720 | 18.89° C | 31% | 1012.6 hPa | 0 mm | - | 894 W/m² | - |
| 1777908416 | 18.89° C | 31% | 1012.4 hPa | 0 mm | - | 898 W/m² | - |
| 1777908113 | 18.89° C | 32% | 1012.6 hPa | 0 mm | - | 435 W/m² | - |
| 1777907809 | 18.33° C | 33% | 1012.5 hPa | 0 mm | - | 500 W/m² | - |
| 1777907504 | 18.33° C | 34% | 1012.6 hPa | 0 mm | - | 581 W/m² | - |
| 1777907201 | 18.33° C | 33% | 1012.7 hPa | 0 mm | - | 550 W/m² | - |
| 1777906898 | 18.33° C | 34% | 1012.5 hPa | 0 mm | - | 497 W/m² | - |
| 1777906596 | 17.78° C | 33% | 1012.8 hPa | 0 mm | - | 510 W/m² | - |
| 1777906291 | 17.22° C | 34% | 1012.9 hPa | 0 mm | - | 560 W/m² | - |
| 1777905988 | 17.22° C | 34% | 1012.9 hPa | 0 mm | - | 455 W/m² | - |
| 1777905685 | 16.67° C | 36% | 1013 hPa | 0 mm | - | 425 W/m² | - |
| 1777905381 | 16.11° C | 36% | 1012.9 hPa | 0 mm | - | 104 W/m² | - |
| 1777905079 | 16.11° C | 36% | 1012.9 hPa | 0 mm | - | 154 W/m² | - |
| 1777904776 | 15.56° C | 38% | 1013.3 hPa | 0 mm | - | 140 W/m² | - |
| 1777904473 | 15.56° C | 40% | 1013.1 hPa | 0 mm | - | 192 W/m² | - |
| 1777904170 | 15.56° C | 37% | 1013.2 hPa | 0 mm | - | 226 W/m² | - |
| 1777903867 | 15.56° C | 37% | 1013.3 hPa | 0 mm | - | 195 W/m² | - |
| 1777903563 | 15.56° C | 37% | 1013.3 hPa | 0 mm | - | 182 W/m² | - |
| 1777903259 | 15° C | 40% | 1013.8 hPa | 0 mm | - | 84 W/m² | - |
| 1777902956 | 15° C | 39% | 1013.8 hPa | 0 mm | - | 93 W/m² | - |
* Rain latest hour (hover to see other rain measurements)
** Current wind speed in m/s (hover to see current wind gust speed)